Pagina principale
METAR-TAF:

METAR-TAF

Aeroporti :

Payerne, Svizzera

latitudine: 46-49N, longitudine: 006-57E, altezza: 490 m

Osservazione

Il bollettino è stato emesso 27 minuti fa, alle 16:20 UTC
Vento 3 kt da nord
Temperature 3°C
Umidità 70%
Pressione 1028 hPa
Visibilità 10 km o più
Nuvoloso ad un'altezza di 4500 ft

METAR: LSMP 201620Z AUTO 36003KT 9999NDV BKN045 03/M02 Q1028 RMK

Ora: 17:47 (16:47 UTC)


TAF: mancante

Osservazioni e previsioni meteorologiche di più di 4000 aeroporti (messaggi METAR e TAF).

Le stazioni disponibili sono rappresentate dai dischi gialli e rossi sulla carta.

Puntare il mouse per vedere il nome della stazione.

Clicca sopra per visualizzare le osservazioni e previsioni meteorologiche.

Per cambiare la mappa : fare clic sui pulsanti verdi con una croce nera per ingrandire, il pulsante verde con un trattino per diminuire, o sulla freccia verde per le mappe adiacenti.


METAR-TAF: